Find Starlink 33825

NORAD ID: 63505 Int'l Des: 2025-071 Owner: SPXS Country: US Constellation: starlink operational
LEOCIRCULAR

現在のビュー

3D地球を読み込み中...

About Starlink 33825

Starlink 33825 (NORAD 63505) is a starlink constellation satellite (v2 mini) launched Apr 7, 2025 by SPXS of US. It operates in LEO, CIRCULAR orbit with a mass of 575.00 kg.

次回通過

Passes for default location (London). Set your location on the main map for personalized predictions.

高度履歴

Loading altitude history...

軌道要素

1 63505U 25071N 26265.91668981 .00036590 00000-0 10896-2 0 9992
2 63505 53.1590 302.5226 0001219 88.0818 305.7258 15.34376703 5880
Epoch: Sep 22, 2026 • Age: 6 hours

現在のステータス

高度 464.2 km
遠地点 / 近地点 N/A
速度 7.64 km/s
衛星直下点 31.83°N, 97.46°W
打ち上げ日 Apr 7, 2025
運用期間 1.4 years
タイプ internet

技術仕様

分類 Payload
質量 575.00 kg
乾燥質量 530.00 kg
長さ 0.30 m
スパン 29.00 m
形状 ? Box + pan
製造者 SPXS
バスタイプ Starlink V2MO
フェーズステータス In Orbit
所有者/国 SPXS/US

Most Searched